{"data":{"norad_id":69616,"epoch":"2026-09-20T04:00:03.000096Z","epoch_age_seconds":57728,"freshness":"FRESH","line1":"1 69616U 26140AA  26263.16670139 -.00031919  00000+0 -25158-2 0  9990","line2":"2 69616  51.8958 301.5679 0004536 226.9805 174.9566 15.00189249  5784","mean_motion":15.00189249,"eccentricity":0.0004536,"inclination_deg":51.8958,"raan_deg":301.5679,"arg_perigee_deg":226.9805,"mean_anomaly_deg":174.9566,"bstar":-0.0025158,"rev_number":578,"period_min":95.987889591922,"perigee_km":563.1622534962,"apogee_km":569.46225786096,"semimajor_km":6944.4492556786,"source":"CELESTRAK","updated_at":"2026-09-20T09:00:25.005218Z"}}